TimeEDT,TemperatureF,Dew PointF,Humidity,Sea Level PressureIn,VisibilityMPH,Wind Direction,Wind SpeedMPH,Gust SpeedMPH,PrecipitationIn,Events,Conditions,WindDirDegrees,DateUTC
12:25 AM,55.4,53.6,94,29.79,10.0,WNW,6.9,-,N/A,,Overcast,300,2013-09-22 04:25:00
12:56 AM,55.0,51.1,86,29.78,10.0,NNW,9.2,-,N/A,,Mostly Cloudy,330,2013-09-22 04:56:00
1:56 AM,53.1,50.0,89,29.78,10.0,Calm,Calm,-,N/A,,Mostly Cloudy,0,2013-09-22 05:56:00
2:51 AM,53.6,50.0,88,29.80,8.0,NW,4.6,-,N/A,,Mostly Cloudy,320,2013-09-22 06:51:00
2:56 AM,52.0,50.0,93,29.79,8.0,NW,3.5,-,N/A,,Mostly Cloudy,310,2013-09-22 06:56:00
3:56 AM,53.1,50.0,89,29.79,10.0,WNW,4.6,-,N/A,,Overcast,290,2013-09-22 07:56:00
4:38 AM,53.6,50.0,88,29.81,10.0,WNW,5.8,-,N/A,,Overcast,290,2013-09-22 08:38:00
4:56 AM,52.0,50.0,93,29.81,10.0,WNW,3.5,-,N/A,,Overcast,300,2013-09-22 08:56:00
5:30 AM,51.8,50.0,94,29.83,10.0,WNW,4.6,-,N/A,,Overcast,290,2013-09-22 09:30:00
5:48 AM,51.8,48.2,88,29.83,10.0,WNW,4.6,-,N/A,,Overcast,290,2013-09-22 09:48:00
5:56 AM,52.0,48.9,89,29.83,10.0,NW,4.6,-,N/A,,Overcast,320,2013-09-22 09:56:00
6:05 AM,51.8,48.2,88,29.83,10.0,NNW,4.6,-,N/A,,Overcast,340,2013-09-22 10:05:00
6:25 AM,51.8,48.2,88,29.84,10.0,West,3.5,-,N/A,,Overcast,280,2013-09-22 10:25:00
6:52 AM,51.8,48.2,88,29.84,10.0,WNW,4.6,-,N/A,,Overcast,300,2013-09-22 10:52:00
6:53 AM,52.0,48.9,89,29.84,10.0,NW,3.5,-,N/A,,Overcast,310,2013-09-22 10:53:00
7:56 AM,52.0,48.0,86,29.86,10.0,NW,4.6,-,N/A,,Overcast,310,2013-09-22 11:56:00
8:15 AM,51.8,48.2,88,29.87,10.0,WNW,5.8,-,N/A,,Overcast,300,2013-09-22 12:15:00
8:56 AM,53.1,46.9,80,29.87,10.0,North,11.5,-,N/A,,Overcast,350,2013-09-22 12:56:00
9:19 AM,53.6,46.4,77,29.88,10.0,North,11.5,17.3,N/A,,Overcast,350,2013-09-22 13:19:00
9:29 AM,53.6,46.4,77,29.88,10.0,North,11.5,-,N/A,,Overcast,350,2013-09-22 13:29:00
9:56 AM,52.0,45.0,77,29.89,10.0,NNW,9.2,-,N/A,,Overcast,340,2013-09-22 13:56:00
10:56 AM,53.1,46.0,77,29.91,7.0,NW,6.9,-,N/A,,Overcast,310,2013-09-22 14:56:00
11:40 AM,55.4,46.4,72,29.91,10.0,WNW,10.4,-,N/A,,Overcast,300,2013-09-22 15:40:00
11:56 AM,57.0,46.9,69,29.90,10.0,NNW,10.4,17.3,N/A,,Overcast,330,2013-09-22 15:56:00
12:56 PM,55.9,44.1,64,29.91,10.0,WNW,9.2,-,N/A,,Overcast,300,2013-09-22 16:56:00
1:56 PM,57.0,44.1,62,29.91,10.0,NW,9.2,-,N/A,,Overcast,320,2013-09-22 17:56:00
2:56 PM,59.0,42.1,53,29.90,10.0,WNW,12.7,18.4,N/A,,Overcast,300,2013-09-22 18:56:00
3:56 PM,57.0,43.0,59,29.91,10.0,NW,10.4,-,N/A,,Overcast,320,2013-09-22 19:56:00
4:56 PM,55.9,41.0,57,29.92,10.0,NW,8.1,-,N/A,,Overcast,320,2013-09-22 20:56:00
5:56 PM,55.0,44.1,67,29.94,10.0,NW,4.6,-,N/A,,Overcast,320,2013-09-22 21:56:00
6:56 PM,53.1,43.0,69,29.95,10.0,NNW,6.9,-,N/A,,Overcast,340,2013-09-22 22:56:00
7:56 PM,52.0,43.0,71,29.98,10.0,NNW,6.9,-,N/A,,Overcast,340,2013-09-22 23:56:00
8:56 PM,52.0,42.1,69,30.00,10.0,NNW,5.8,-,N/A,,Overcast,340,2013-09-23 00:56:00
9:56 PM,51.1,43.0,74,30.01,10.0,NNW,4.6,-,N/A,,Overcast,330,2013-09-23 01:56:00
10:56 PM,50.0,43.0,77,30.02,10.0,NNW,4.6,-,N/A,,Overcast,330,2013-09-23 02:56:00
11:56 PM,50.0,43.0,77,30.02,10.0,North,4.6,-,N/A,,Overcast,350,2013-09-23 03:56:00